Weather History for Sheboygan, WI

Change the Weather History Date:

Thursday, April 24, 2014

  Actual Average Record
Temperature  
Mean Temperature 42 °F -  
Max Temperature 48 °F 56 °F 80 °F (1962)
Min Temperature 37 °F 37 °F 25 °F (2003)
Degree Days  
Heating Degree Days 22    
Moisture  
Dew Point 31 °F    
Average Humidity 65    
Maximum Humidity 80    
Minimum Humidity 43    
Precipitation  
Precipitation 0.14 in - - ()
Sea Level Pressure  
Sea Level Pressure 29.95 in    
Wind  
Wind Speed 7 mph (ESE)    
Max Wind Speed 15 mph    
Max Gust Speed 29 mph    
Visibility 10 miles    
Events Rain    
Averages and records for this station are not official NWS values.
T = Trace of Precipitation, MM = Missing Value Source: NWS Daily Summary

Daily Weather History Graph

Daily Weather History Graph

Search for Another Location

Airport:

Trip Planner

Search our weather history database for the weather conditions in past years. The results will help you decide how hot, cold, wet, or windy it might be!

Date:

Astronomy

Apr. 24, 2014 Rise Set
Actual Time 5:53 AM CDT 7:45 PM CDT
Civil Twilight 5:23 AM CDT 8:16 PM CDT
Nautical Twilight 4:45 AM CDT 8:54 PM CDT
Astronomical Twilight 4:04 AM CDT 9:35 PM CDT
Moon 3:14 AM CDT (4/24) 2:51 PM CDT (4/24)
Length of Visible Light 14h 53m
Length of Day
13h 51m
Waning Crescent, 24% of the Moon is Illuminated
Apr 24
Waning Crescent
Apr 29
New
May 6
First Quarter
May 14
Full
May 21
Last Quarter

Hourly Weather History & Observations

Time (CDT) Temp. Windchill Dew Point Humidity Pressure Visibility Wind Dir Wind Speed Gust Speed Precip Events Conditions
12:53 AM 37.9 °F 33.5 °F 21.9 °F 53% 30.11 in 10.0 mi NE 5.8 mph - N/A   Overcast
1:53 AM 37.9 °F 35.5 °F 23.0 °F 55% 30.12 in 10.0 mi NNE 3.5 mph - N/A   Overcast
2:53 AM 37.9 °F - 26.1 °F 62% 30.11 in 10.0 mi Calm Calm - N/A   Overcast
3:53 AM 37.9 °F - 27.0 °F 65% 30.12 in 10.0 mi Calm Calm - N/A   Overcast
4:53 AM 37.9 °F 32.7 °F 28.0 °F 68% 30.11 in 10.0 mi SW 6.9 mph - N/A   Overcast
5:53 AM 39.0 °F 36.8 °F 28.0 °F 65% 30.07 in 10.0 mi ESE 3.5 mph - 0.00 in   Overcast
6:53 AM 42.1 °F 38.4 °F 30.9 °F 65% 30.06 in 10.0 mi ESE 5.8 mph - 0.00 in   Overcast
7:53 AM 41.0 °F 35.8 °F 30.9 °F 67% 30.07 in 10.0 mi SSE 8.1 mph - 0.00 in Rain Light Rain
8:53 AM 39.9 °F 34.5 °F 34.0 °F 79% 30.06 in 10.0 mi SE 8.1 mph - 0.04 in Rain Light Rain
9:53 AM 41.0 °F 35.2 °F 35.1 °F 79% 30.05 in 10.0 mi ESE 9.2 mph - 0.01 in Rain Light Rain
10:53 AM 41.0 °F 34.3 °F 35.1 °F 79% 30.02 in 10.0 mi ESE 11.5 mph - 0.00 in Rain Light Rain
11:53 AM 42.1 °F 34.5 °F 35.1 °F 76% 29.99 in 10.0 mi ESE 15.0 mph - 0.00 in   Overcast
12:53 PM 43.0 °F 36.8 °F 35.1 °F 74% 29.96 in 10.0 mi ESE 11.5 mph - 0.00 in   Overcast
1:53 PM 43.0 °F 36.8 °F 37.0 °F 80% 29.95 in 10.0 mi East 11.5 mph - 0.01 in   Overcast
2:53 PM 44.1 °F 38.6 °F 35.1 °F 71% 29.90 in 10.0 mi East 10.4 mph 20.7 mph N/A   Overcast
3:53 PM 43.0 °F 37.7 °F 36.0 °F 76% 29.89 in 6.0 mi East 9.2 mph - 0.01 in Rain Light Rain
4:53 PM 45.0 °F 39.7 °F 33.1 °F 63% 29.85 in 10.0 mi ESE 10.4 mph - 0.02 in Rain Light Rain
5:53 PM 48.0 °F - 28.9 °F 48% 29.80 in 10.0 mi ESE 12.7 mph - 0.00 in Rain Light Rain
6:53 PM 48.9 °F - 27.0 °F 43% 29.79 in 10.0 mi SE 15.0 mph 28.8 mph 0.01 in   Overcast
7:53 PM 46.9 °F - 30.0 °F 52% 29.77 in 10.0 mi SE 13.8 mph 23.0 mph 0.00 in Rain Light Rain
8:53 PM 48.0 °F - 28.0 °F 46% 29.76 in 10.0 mi SE 12.7 mph 20.7 mph 0.00 in   Overcast
9:53 PM 46.9 °F - 32.0 °F 56% 29.78 in 10.0 mi SE 8.1 mph - 0.00 in   Overcast
10:53 PM 44.1 °F 38.6 °F 32.0 °F 63% 29.76 in 10.0 mi ESE 10.4 mph - 0.01 in Rain Light Rain
11:53 PM 42.1 °F 36.6 °F 34.0 °F 73% 29.74 in 7.0 mi SE 9.2 mph - 0.03 in Rain Light Rain